sat.trackr.live / text

‹ back to catalog

STARLINK-34571

NORAD 64914 · 2025-157L

PAYLOAD ACTIVE UNKNOWN

§ Identity

Operator
Country
US
Launch date
2025-07-26
Launch site
AFETR
Launch vehicle
Mass (kg)
RCS (m²)

Purposes: comms

External: N2YO · Heavens-Above · Gunter

§ Orbital elements

Epoch: 2026-05-24T23:55:04.843776Z

Period
94.11 min
Inclination
53.1573°
Eccentricity
0.0000649
Mean motion
15.30204551 rev/d
Perigee alt
474.8 km
Apogee alt
475.6 km
Semi-major
6,853.3 km
B*
4.1216e-4
RAAN
351.4425°
Arg perigee
32.4086°
Mean anomaly
327.6954°
Rev number
4,775

§ Raw data

STARLINK-345711 64914U 25157L   26144.99658384  .00011869  00000+0  41216-3 0  99942 64914  53.1573 351.4425 0000649  32.4086 327.6954 15.30204551 47751

JSON: /api/v1/satellites/64914 · /tle

For live sub-satellite position, see the globe view (requires WebGL).

§ Visibility from observer

Set your observer location to see the next 7 days of passes ≥ 10°. The values pass through the URL so the page stays shareable.

No JS? Fill the form by hand. The geolocation button needs JavaScript.